{"data":{"norad_id":59468,"epoch":"2026-05-24T22:40:48.025056Z","epoch_age_seconds":79756,"freshness":"FRESH","line1":"1 59468U 24068P   26144.94500029  .00000780  00000+0  37874-4 0  9995","line2":"2 59468  43.0024 319.6503 0001644 266.2376  93.8287 15.27580482120238","mean_motion":15.27580482,"eccentricity":0.0001644,"inclination_deg":43.0024,"raan_deg":319.6503,"arg_perigee_deg":266.2376,"mean_anomaly_deg":93.8287,"bstar":3.7874e-5,"rev_number":12023,"period_min":94.266718969508,"perigee_km":481.91967400172,"apogee_km":484.17563151555,"semimajor_km":6861.1846527586,"source":"CELESTRAK","updated_at":"2026-05-25T13:38:18.950488Z"}}